Columbus, OH

9:24 PM EST on January 17, 2017 (GMT -0500)
Ohio State University

Weather History for KOSU - February, 2014

Change the Weather History Date:

Tuesday, February 11, 2014

  Actual Average Record
Temperature  
Mean Temperature 6 °F -  
Max Temperature 14 °F 38 °F 72 °F (1999)
Min Temperature -2 °F 23 °F -2 °F (2014)
Degree Days  
Heating Degree Days 59    
Moisture  
Dew Point -1 °F    
Average Humidity 76    
Maximum Humidity 91    
Minimum Humidity 59    
Precipitation  
Precipitation 0.00 in - - ()
Sea Level Pressure  
Sea Level Pressure 30.48 in    
Wind  
Wind Speed 4 mph (North)    
Max Wind Speed 9 mph    
Max Gust Speed -    
Visibility 7 miles    
Events      
Averages and records for this station are not official NWS values.
T = Trace of Precipitation, MM = Missing Value Source: NWS Daily Summary

Daily Weather History Graph

Daily Weather History Graph

Search for Another Location

Airport or City:

Trip Planner

Search our weather history database for the weather conditions in past years. The results will help you decide how hot, cold, wet, or windy it might be!

Date:

Astronomy

Feb. 11, 2014 Rise Set
Actual Time 7:30 AM EST 6:03 PM EST
Civil Twilight 7:02 AM EST 6:31 PM EST
Nautical Twilight 6:30 AM EST 7:03 PM EST
Astronomical Twilight 5:58 AM EST 7:34 PM EST
Moon 3:22 PM EST (2/11) 5:06 AM EST (2/11)
Length of Visible Light 11h 29m
Length of Day
10h 33m
Waxing Gibbous, 90% of the Moon is Illuminated
Feb 11
Waxing Gibbous
Feb 14
Full
Feb 22
Last Quarter
Mar 1
New
Mar 8
First Quarter

Hourly Weather History & Observations

Time (EST) Temp. Windchill Dew Point Humidity Pressure Visibility Wind Dir Wind Speed Gust Speed Precip Events Conditions
12:53 AM 3.0 °F - -0.9 °F 84% 30.43 in 3.0 mi Calm Calm - N/A   Clear
1:53 AM -0.0 °F -7.9 °F -2.9 °F 88% 30.43 in 3.0 mi WNW 3.5 mph - N/A   Clear
2:53 AM -0.0 °F -13.0 °F -5.1 °F 79% 30.43 in 4.0 mi North 6.9 mph - N/A   Haze
3:53 AM -0.9 °F -12.7 °F -4.0 °F 87% 30.43 in 5.0 mi North 5.8 mph - N/A   Clear
4:53 AM -0.9 °F -14.1 °F -5.1 °F 83% 30.44 in 5.0 mi NNW 6.9 mph - N/A   Clear
5:53 AM -0.9 °F - -6.0 °F 79% 30.46 in 4.0 mi Calm Calm - N/A   Haze
6:53 AM -2.9 °F -13.3 °F -6.0 °F 87% 30.48 in 4.0 mi WNW 4.6 mph - N/A   Clear
7:53 AM -2.0 °F - -6.0 °F 83% 30.50 in 3.0 mi Calm Calm - N/A   Clear
8:53 AM 1.0 °F - -0.9 °F 91% 30.51 in 3.0 mi Calm Calm - N/A   Clear
9:53 AM 5.0 °F -2.1 °F 1.0 °F 84% 30.51 in 6.0 mi North 3.5 mph - N/A   Clear
10:53 AM 9.0 °F -0.9 °F 1.9 °F 73% 30.52 in 7.0 mi NNE 5.8 mph - N/A   Clear
11:53 AM 12.0 °F 4.1 °F 3.9 °F 70% 30.52 in 7.0 mi NNW 4.6 mph - N/A   Clear
12:53 PM 12.0 °F -0.4 °F 3.0 °F 67% 30.50 in 10.0 mi NNW 9.2 mph - N/A   Clear
1:53 PM 14.0 °F 6.5 °F 3.0 °F 62% 30.49 in 10.0 mi North 4.6 mph - N/A   Clear
2:53 PM 14.0 °F 3.9 °F 3.0 °F 62% 30.48 in 10.0 mi NNE 6.9 mph - N/A   Clear
3:53 PM 14.0 °F 5.1 °F 1.9 °F 59% 30.48 in 10.0 mi North 5.8 mph - N/A   Clear
4:53 PM 12.0 °F -0.4 °F 1.0 °F 61% 30.49 in 10.0 mi NNW 9.2 mph - N/A   Clear
5:53 PM 10.0 °F -1.9 °F -0.0 °F 64% 30.50 in 10.0 mi North 8.1 mph - N/A   Clear
6:53 PM 6.1 °F -4.3 °F -2.0 °F 69% 30.52 in 10.0 mi North 5.8 mph - N/A   Clear
7:53 PM 7.0 °F -1.7 °F -0.9 °F 70% 30.52 in 10.0 mi North 4.6 mph - N/A   Clear
8:53 PM 5.0 °F -5.6 °F -2.0 °F 73% 30.51 in 10.0 mi NNE 5.8 mph - N/A   Clear
9:53 PM 3.9 °F -6.9 °F -0.9 °F 80% 30.48 in 10.0 mi NNE 5.8 mph - N/A   Clear
10:53 PM 3.0 °F -4.4 °F -0.9 °F 84% 30.48 in 10.0 mi North 3.5 mph - N/A   Clear
11:53 PM 1.0 °F -8.7 °F -2.0 °F 87% 30.48 in 10.0 mi NNE 4.6 mph - N/A   Clear